Wind_Speed
5 6 6 8 12 14 14 13 11 10 10 9 9 8 10 13 15 18 20 22 23 25 28 31 30 29 29 27 26 22 21 17
3 4 4 8 10 12 13 12 8 9 7 8 8 9 13 18 19 22 23 24 24 26 29 31 33 32 36 34 30 26 21 20
3 5 6 6 8 6 3 1 4 7 9 10 11 14 14 17 19 23 25 27 28 26 24 27 28 26 29 37 32 25 20 20
4 5 7 9 8 6 6 6 7 9 10 11 11 12 13 14 19 23 25 23 22 25 27 26 26 25 27 31 32 31 29 21
8 8 10 8 9 11 16 16 14 14 14 14 15 10 12 14 18 21 28 28 29 29 30 29 27 25 25 27 27 29 27 27
8 10 12 15 16 17 15 14 16 17 18 17 15 13 12 16 20 26 29 29 30 29 27 27 27 24 23 22 21 20 23 26
8 10 10 12 13 13 13 13 14 17 17 16 16 17 19 21 27 31 33 33 31 31 26 21 17 14 8 3 2 3 1 6
8 8 8 9 11 13 15 17 16 19 19 18 19 21 23 27 30 30 32 31 28 24 15 6 3 9 12 12 12 11 12 10
5 2 1 4 8 13 15 16 18 21 22 21 20 23 27 28 27 30 31 27 19 9 2 5 6 7 6 6 7 9 13 10
3 2 5 7 12 20 21 19 18 18 20 18 19 23 27 26 29 29 25 19 6 4 2 2 2 3 6 9 12 10 9 9
10 13 15 12 13 16 16 14 14 15 16 15 18 23 24 26 28 25 18 7 3 2 5 4 6 7 8 10 8 5 3 4
9 14 16 13 11 14 14 13 14 15 14 20 23 23 23 23 18 15 7 2 4 3 5 7 10 8 9 11 7 5 5 5
11 13 12 8 12 15 16 14 15 14 19 19 16 17 19 15 11 8 7 7 6 6 7 11 13 14 14 10 9 8 9 9
10 13 11 14 16 16 15 15 13 18 17 14 13 16 14 9 9 10 11 11 9 11 12 12 14 15 16 14 13 12 12 11
8 8 13 14 13 13 14 14 16 16 11 8 8 10 9 10 11 12 12 14 13 15 15 15 15 15 14 16 13 11 10 10
9 9 10 12 14 14 13 15 16 12 8 8 9 9 8 12 11 13 13 13 14 14 14 13 12 12 10 11 9 9 12 15
7 9 11 11 14 15 16 15 10 9 6 5 5 7 10 13 14 15 14 14 14 14 15 15 15 11 12 10 13 15 18 20
9 11 12 13 15 16 18 14 10 6 3 6 8 11 12 11 12 14 15 14 13 14 13 12 11 11 15 17 18 19 21 21
11 14 16 15 16 18 15 7 7 6 6 8 10 11 11 12 14 14 13 13 14 13 11 11 14 16 19 19 19 19 19 20
Wind_Direction
323 309 246 213 192 193 196 201 218 235 240 253 264 282 297 299 304 303 301 294 290 282 278 277 274 267 264 260 255 254 251 248
54 85 138 176 181 186 191 205 226 245 277 306 318 330 324 318 320 322 319 316 310 299 287 283 279 267 263 261 258 249 242 244
94 110 120 126 143 156 177 309 339 341 331 321 317 319 325 329 331 326 323 317 313 311 302 292 283 273 265 259 252 246 248 230
133 91 67 51 50 30 16 12 26 38 29 13 356 347 338 337 335 331 328 326 325 321 315 306 297 282 269 259 252 244 243 239
17 22 33 36 52 69 80 74 52 35 19 10 9 2 347 337 334 328 330 328 322 319 314 308 299 289 274 270 263 255 248 248
48 59 73 74 72 66 58 42 28 16 10 8 7 6 350 338 336 332 331 327 323 317 312 306 299 290 280 273 267 257 252 244
70 73 74 67 53 42 28 14 8 2 358 356 358 357 350 341 339 337 330 323 320 315 312 305 302 301 301 326 26 80 138 144
61 60 54 34 24 16 7 359 356 2 0 355 352 349 346 341 335 327 318 314 314 310 309 312 60 99 95 89 84 64 45 34
60 63 137 0 9 9 3 5 354 350 350 345 340 337 337 329 322 316 311 309 302 288 161 106 87 70 50 27 12 352 351 11
11 302 293 345 1 7 360 351 346 341 335 329 326 330 330 323 319 316 312 312 271 160 107 53 357 29 351 332 316 302 328 347
346 337 335 333 346 350 341 331 326 323 326 329 329 329 328 326 324 322 319 318 197 293 341 29 31 28 6 346 333 319 276 259
323 321 325 321 316 334 335 327 327 333 339 335 331 332 337 340 342 346 359 17 326 21 39 28 15 351 346 319 314 305 289 296
315 320 328 335 332 338 339 344 344 344 332 326 334 350 353 356 6 21 22 14 43 34 10 358 340 324 305 311 318 314 308 301
330 337 345 346 350 347 345 344 345 337 335 338 350 357 356 2 7 7 11 9 10 2 351 340 336 333 328 326 323 311 299 294
328 346 354 347 327 342 347 342 338 334 334 339 344 346 347 341 335 329 334 341 343 344 344 328 318 312 307 303 307 304 302 298
4 343 318 322 340 329 329 332 334 334 330 334 336 333 342 353 358 346 336 326 322 316 315 316 324 325 324 324 323 315 307 303
317 284 312 315 329 331 323 322 328 327 311 349 11 348 332 337 331 331 331 332 334 337 337 334 333 337 333 325 318 311 302 298
316 313 311 325 326 327 322 320 325 318 313 328 320 327 336 341 340 338 335 334 337 338 339 337 336 337 331 322 314 306 297 296
289 312 321 322 325 324 318 302 297 299 294 313 325 332 336 336 337 336 335 334 333 331 335 339 330 323 324 323 318 308 300 299
Height
821 819 819 820 822 826 829 831 833 834 834 834 834 834 833 834 833 832 831 829 827 826 823 821 821 820 818 817 816 816 815 814
820 819 819 820 822 825 828 830 832 834 834 834 834 833 832 832 831 829 828 825 823 821 818 815 814 813 812 812 811 809 808 809
823 822 823 823 824 828 831 833 834 835 835 835 834 832 830 828 827 825 823 821 817 814 812 809 806 805 804 803 804 804 803 802
824 826 827 828 830 832 833 834 835 834 834 834 833 830 828 827 825 822 820 817 815 811 808 805 802 800 796 795 794 794 793 794
829 830 831 832 833 834 835 836 835 835 835 834 831 830 830 827 824 821 816 812 809 806 802 798 795 793 791 788 788 787 788 786
834 835 835 836 836 836 836 836 835 835 834 832 829 828 826 824 821 816 811 807 803 800 795 791 787 784 782 781 781 780 780 779
837 838 838 838 836 835 835 835 834 832 830 829 828 826 823 820 817 813 808 803 798 794 790 786 781 778 778 778 778 779 780 779
838 839 839 838 837 836 835 833 831 830 829 827 826 824 822 819 814 811 806 799 795 791 787 784 780 777 777 779 781 782 783 784
841 841 840 839 837 835 834 832 831 829 827 825 824 823 820 817 813 808 801 795 791 787 786 786 785 782 782 779 782 781 781 783
841 840 838 837 836 833 832 832 831 830 827 825 823 821 817 812 807 801 794 788 787 788 788 786 788 784 782 781 781 778 778 779
838 837 836 836 835 834 832 830 829 828 825 824 821 817 812 807 800 794 789 786 787 788 788 788 786 785 784 782 781 779 778 778
839 838 836 834 833 832 830 828 826 824 821 819 816 811 806 801 796 792 790 790 788 788 787 787 785 785 782 780 778 776 776 775
836 835 834 832 831 829 827 825 823 821 818 814 812 809 806 802 798 793 791 790 788 788 788 785 783 781 781 778 775 774 773 772
834 833 833 832 830 827 825 822 821 819 817 815 811 808 805 802 799 797 794 792 788 785 784 782 780 779 777 774 773 772 771 769
833 832 830 830 828 825 823 820 817 815 812 809 806 805 805 802 797 797 794 791 788 784 781 780 777 775 774 772 770 768 767 766
833 834 830 827 827 823 820 818 814 812 811 809 807 803 802 800 796 795 792 789 785 781 778 776 774 772 770 768 766 765 764 762
835 830 827 823 823 821 819 815 811 810 810 807 805 803 800 798 795 792 790 787 783 779 776 774 772 770 768 767 765 764 761 759
832 825 821 822 821 818 815 812 811 809 806 805 804 801 798 795 793 790 788 785 782 778 775 773 771 769 767 765 763 761 757 754
826 824 823 819 817 814 811 810 810 808 806 805 802 799 796 793 790 788 786 784 780 777 774 772 769 767 764 761 758 755 752 749